Погода в Лепеле

Погода в Лепеле : погода сейчас, прогноз погоды и архив. Всё, что Вы хотите узнать о погоде в Лепеле!

Хотите узнать прогноз погоды в Лепеле? Тогда Вам сюда: Погода в Лепеле

Поиск расширенной информации на нашем сайте:

Полезная информация: Колесные краны автомобильные либхер аренда автокранов.

Другие новости

Новости СМИ2

Главная страница сайта

Новости сайта

03.07.2017

Напоминаем, что на нашем специализированном сайте Метеоцентр.Азия вы можете получить высокодетализированные автоматические прогнозы погоды по пунктам России, СНГ и мира в авиационном формате (включающие направление и скорость ветра, видимость, явления погоды, количество и форму облачности, нижнюю и верхнюю границу облачности).

Рекомендуем: диски bmw

Погода в Лепеле - сегодня

Время (UTC), дата Ветер
(°,м/с) 
Видим.   Явления Облачность Т
(°С)
Тd
(°С)
f(%) Тe
(°С)
Pmin
(гПа)
dP
(гПа)
Po
(мм)
O2
(г/м3)
Тmin Tmax R s Состояние
почвы
18 06.10.18 190 (Ю) 3{13}  13000 м    ясно 
+11.3 +5.8 69 +11  1015.2    746  288    +17       
06 07.10.18 200 (Ю) 17000 м    ясно 
+7.1 +5.5 90 +7  1010.8    742  291  +5.5        влажная 
18 07.10.18 240 (ЮЗ) 4{11}  5000 м  слаб. дождь  10/0 средняя 
[As op]
+13.4 +12.6 95 +18  1008.9    741  282    +16     
06 08.10.18 360 (С) 4{12}  15000 м  {дождь}  9/9 570 м 
[Sc]
+5.6 +1.9 77 +4  1022.3    751  296  +5.3       
18 08.10.18 180 (Ю) 15000 м    8/0 средняя 
[As trans]
+5.1 +3.2 88 +6  1026.4    754  298    +9.5       
06 09.10.18 200 (Ю) 15000 м    9/0 средняя, верхняя 
[Ac trans|Ci fib]
+4.1 +3.1 93 +4  1027    754  299  +2         
18 09.10.18 200 (Ю) 15000 м    ясно 
+7 +4 81 +7  1026    753  295    +13       
06 10.10.18 210 (ЮЗ) 15000 м    9/0 средняя, верхняя 
[Ac trans|Ci fib]
+5.9 +4.7 92 +6  1026.6    754  297  +4         
18 10.10.18 260 (З) 14000 м    ясно 
+10.9 +8.5 85 +11  1027.4    755  291    +17.6       
06 11.10.18 020 (С) 6000 м  дымка  9/9 570 м 
[Sc]
+10.1 +9.3 95 +11  1031.7    758  293  +7.2         
18 11.10.18 тихо ()   12000 м    ясно 
+8.9 +7.8 93 +9  1033.3    759  295    +17.2       
06 12.10.18 180 (Ю) 1500 м  в посл. час туман  ясно 
+5.8 +5.6 99 +6  1036.2    761  299  +2.6         
18 12.10.18 170 (Ю) 15000 м    ясно 
+9 +7.7 92 +9  1033.6    759  295    +16.8       
06 13.10.18 200 (Ю) 3500 м  дымка  ясно 
+5.8 +5.3 97 +6  1032.7    758  298  +3.8         
18 13.10.18 230 (ЮЗ) 13000 м    ясно 
+11.1 +9.5 90 +12  1031.5    758  292    +18.4       
06 14.10.18 200 (Ю) 0300 м  туман  10/0 средняя 
[As trans]
+4.2 +4.2 100 +5  1032.2    758  300  +3         
18 14.10.18 160 (Ю) 12000 м    ясно 
+9.8 +8.4 91 +10  1029.8    756  293    +19.1       
06 15.10.18 170 (Ю) 6000 м  дымка{туман}  ясно 
+5.1 +4.2 94 +6  1029.9    756  298  +3.2         
18 15.10.18 210 (ЮЗ) 12000 м    3/0 верхняя 
[Ci fib]
+10.6 +6.1 74 +11  1027.8    755  292    +18.3       
06 16.10.18 170 (Ю) 15000 м    3/0 верхняя 
[Ci fib]
+5.5 +3.8 89 +5  1027.1    754  297  +3.5         
18 16.10.18 180 (Ю) 10 км    ясно 
+9.6 +6.1 79 +11  1025.7    753  292    +19.2       
06 17.10.18 210 (ЮЗ) 4500 м  дымка  ясно 
+5.8 +5.3 97 +7  1026    753  296  +3.7         
18 17.10.18 190 (Ю) 17000 м    ясно 
+9.9 +7.8 87 +11  1025.1    753  291    +20.1       
06 18.10.18 170 (Ю) 4000 м  дымка{туман}  ясно 
+6.1 +5.6 97 +6  1023.7    752  295  +4.2         
18 18.10.18 180 (Ю) 12000 м    ясно 
+12.2 +10.5 89 +15  1019    749  287    +21.5       
Время (UTC), дата Ветер
(°,м/с) 
Видим.   Явления Облачность Т
(°С)
Тd
(°С)
f(%) Тe
(°С)
Pmin
(гПа)
dP
(гПа)
Po
(мм)
O2
(г/м3)
Тmin Tmax R s Состояние
почвы

Для получения пояснительной информации подведите курсор к названию столбца.

ПОГОДА в Лепеле - архив

Всё, что Вы хотите узнать о погоде в Лепеле - удобно и подробно!

Выберите нужную дату (начиная с 1 января 2015* года) и нажмите кнопку "Найти".
Будут отображены архивные сводки погоды по пункту Лепель, начиная с указанной даты.


Отображать данные в формате CSV (для использования в таблицах Excel)


Внимание! Наш архив погоды предназначен исключительно для личного некоммерческого использования в познавательных целях. Если Вам необходимы официальные справки о состоянии погоды (для производственных, юридических, коммерческих и т.п. целей), обращайтесь в органы Росгидромета.

*Примечание: данная дата относится к архиву по метеостанциям СССР (Россия, СНГ, Балтия).
Архив по метеостанциям Зарубежной Европы и Азии (кроме Китая) хранится 10 дней, по другим регионам земного шара (Китай, Африка, Америка, Австралия, Океания) - 1 день.

Лепель - район местоположения метеостанции


Название, широта, долгота, высота метеостанции:
Лепель 54.9°ш. 28.7°д. 174 м над ур. моря [Беларусь]

Дополнительная информация

В oтличие oт бoльшинства пoгoдных сайтoв мы публикуем пoдрoбную метеoинфoрмацию в детальнoм прoфессиoнальнoм фoрмате.

Характеристики температуры и влажнoсти вoздуха измеряются на высoте 2 м в тени вдали oт зданий и деревьев.
Скoрoсть ветра измеряется на высoте 10 м (на урoвне рoста челoвека скoрoсть ветра ниже в 1.5-2 раза). Если метеoстанция нахoдится в гoрoде или в лесу, тo скoрoсть ветра занижена на 2-4 м/с пo сравнению с oткрытым местoм. Скoрoсть ветра над акватoриями крупных рек и oзёр, а также на вершинах хoлмoв на 2-5 м/с выше, чем в oбычных услoвиях.
Атмoсфернoе давление в разных тoчках местнoсти мoжет значительнo oтличаться oт давления на метеoстанции, в зависимoсти oт услoвий рельефа (при пoдъёме на 10 м давление пoнижается примернo на 1 мм рт.ст.).